Location: Beuerbach
(48.1459°N, 10.9174°E)
Time: 08:32:12
(UTC+00:00)

Cosmos 1346 Rocket - Pass Details

Date: 23 May 2024
Orbit: 508 x 521 km, 81.2° (Epoch: 15 June)

Event Time Altitude Azimuth Distance (km) Brightness Sun altitude
Rises 00:39:15 0° 342° (NNW) 2,661 7.1 -18.6°
Reaches altitude 10° 00:41:28 10° 335° (NNW) 1,769 6.0 -18.4°
Maximum altitude 00:45:08 41° 265° (W) 764 3.3 -18.2°
Enters shadow 00:45:42 39° 241° (WSW) 800 3.2 -18.2°
